TimeEST,TemperatureF,Dew PointF,Humidity,Sea Level PressureIn,VisibilityMPH,Wind Direction,Wind SpeedMPH,Gust SpeedMPH,PrecipitationIn,Events,Conditions,WindDirDegrees,DateUTC
12:56 AM,43.0,24.1,47,30.03,10.0,Calm,Calm,-,N/A,,Clear,0,2012-11-23 05:56:00
1:56 AM,42.1,24.1,49,30.01,10.0,South,5.8,-,N/A,,Clear,180,2012-11-23 06:56:00
2:56 AM,45.0,24.1,44,29.98,10.0,South,4.6,-,N/A,,Partly Cloudy,170,2012-11-23 07:56:00
3:56 AM,45.0,24.1,44,29.95,10.0,South,4.6,-,N/A,,Partly Cloudy,170,2012-11-23 08:56:00
4:56 AM,48.0,26.1,42,29.93,10.0,SSW,8.1,-,N/A,,Clear,200,2012-11-23 09:56:00
5:56 AM,48.0,27.0,44,29.90,10.0,SW,15.0,21.9,N/A,,Clear,220,2012-11-23 10:56:00
6:56 AM,48.0,28.0,46,29.87,10.0,SW,12.7,24.2,N/A,,Clear,220,2012-11-23 11:56:00
7:56 AM,48.0,30.0,50,29.86,10.0,SSW,13.8,23.0,N/A,,Scattered Clouds,210,2012-11-23 12:56:00
8:38 AM,48.2,30.2,50,29.83,10.0,SW,13.8,23.0,N/A,,Overcast,220,2012-11-23 13:38:00
8:56 AM,48.9,32.0,52,29.84,10.0,SW,12.7,20.7,N/A,,Overcast,220,2012-11-23 13:56:00
9:56 AM,48.9,34.0,56,29.83,10.0,SW,13.8,-,N/A,,Overcast,220,2012-11-23 14:56:00
10:56 AM,46.0,39.0,76,29.83,10.0,SW,9.2,-,0.00,,Overcast,220,2012-11-23 15:56:00
11:56 AM,45.0,41.0,86,29.81,7.0,SW,12.7,23.0,0.01,,Overcast,220,2012-11-23 16:56:00
12:05 PM,44.6,41.0,87,29.78,8.0,SW,10.4,23.0,N/A,,Overcast,220,2012-11-23 17:05:00
12:16 PM,44.6,41.0,87,29.78,8.0,SW,12.7,-,N/A,,Overcast,220,2012-11-23 17:16:00
12:56 PM,44.1,42.1,93,29.78,4.0,SW,9.2,-,N/A,,Overcast,220,2012-11-23 17:56:00
1:56 PM,45.0,42.1,90,29.76,10.0,SW,11.5,-,N/A,,Overcast,220,2012-11-23 18:56:00
2:22 PM,46.4,42.8,87,29.74,10.0,SW,9.2,-,N/A,,Overcast,220,2012-11-23 19:22:00
2:56 PM,46.0,41.0,83,29.75,10.0,SSW,10.4,18.4,N/A,,Overcast,210,2012-11-23 19:56:00
3:56 PM,46.0,41.0,83,29.73,10.0,SSW,8.1,18.4,N/A,,Mostly Cloudy,200,2012-11-23 20:56:00
4:08 PM,46.4,41.0,81,29.72,10.0,SSW,9.2,-,N/A,,Mostly Cloudy,200,2012-11-23 21:08:00
4:56 PM,45.0,39.9,82,29.73,10.0,SW,10.4,19.6,N/A,,Mostly Cloudy,220,2012-11-23 21:56:00
5:56 PM,41.0,28.9,62,29.78,10.0,West,16.1,27.6,N/A,,Partly Cloudy,270,2012-11-23 22:56:00
6:56 PM,37.9,27.0,65,29.82,10.0,West,24.2,33.4,N/A,,Overcast,280,2012-11-23 23:56:00
7:20 PM,35.6,24.8,65,29.82,10.0,West,23.0,36.8,N/A,,Overcast,270,2012-11-24 00:20:00
7:56 PM,34.0,21.9,61,29.86,10.0,West,20.7,35.7,N/A,,Overcast,260,2012-11-24 00:56:00
8:06 PM,33.8,21.2,60,29.83,10.0,West,24.2,34.5,N/A,,Overcast,260,2012-11-24 01:06:00
8:33 PM,32.0,24.8,75,29.85,7.0,West,13.8,28.8,0.00,Snow,Light Snow,270,2012-11-24 01:33:00
8:51 PM,30.2,21.2,69,29.85,8.0,West,19.6,28.8,0.00,Snow,Light Snow,260,2012-11-24 01:51:00
8:56 PM,30.9,21.9,69,29.88,9.0,West,17.3,28.8,0.00,,Overcast,260,2012-11-24 01:56:00
9:27 PM,30.2,21.2,69,29.85,10.0,WSW,18.4,26.5,N/A,,Overcast,250,2012-11-24 02:27:00
9:56 PM,30.0,21.9,72,29.88,10.0,West,19.6,27.6,N/A,,Overcast,260,2012-11-24 02:56:00
10:56 PM,28.9,21.9,75,29.89,9.0,West,16.1,23.0,0.00,,Overcast,260,2012-11-24 03:56:00
11:56 PM,28.9,21.0,72,29.88,9.0,West,16.1,-,0.00,Snow,Light Snow,260,2012-11-24 04:56:00